Location: Bazugues
(43.4465°N, 0.3432°E)
Time: 10:44:53
(UTC+00:00)

RESURS DK-1 - Pass Details

Date: 12 January 2026
Orbit: 525 x 531 km, 69.9° (Epoch: 11 February)

Event Time Altitude Azimuth Distance (km) Brightness Sun altitude
Rises 18:59:02 0° 199° (SSW) 2,659 6.2 -23.9°
Reaches altitude 10° 19:01:12 10° 196° (SSW) 1,775 5.2 -24.2°
Enters shadow 19:03:20 30° 189° (S) 962 3.6 -24.6°
